Richmond, KY

7:34 AM EDT on March 24, 2017 (GMT -0400)
Richmond

Weather History for KI39 - February, 2013

Change the Weather History Date:

Monday, February 11, 2013

  Actual Average (KLEX) Record (KLEX)
Temperature  
Mean Temperature 47 °F -  
Max Temperature 55 °F 43 °F 74 °F (1999)
Min Temperature 39 °F 25 °F -4 °F (1899)
Degree Days  
Heating Degree Days 18    
Moisture  
Dew Point 35 °F    
Average Humidity 59    
Maximum Humidity 88    
Minimum Humidity 35    
Precipitation  
Precipitation 0.00 in - - ()
Sea Level Pressure  
Sea Level Pressure 29.98 in    
Wind  
Wind Speed 13 mph (SW)    
Max Wind Speed 24 mph    
Max Gust Speed 31 mph    
Visibility 10 miles    
Events      
Averages and records for this station are not official NWS values.
T = Trace of Precipitation, MM = Missing Value Source: NWS Daily Summary

Daily Weather History Graph

Daily Weather History Graph

Search for Another Location

Airport or City:

Trip Planner

Search our weather history database for the weather conditions in past years. The results will help you decide how hot, cold, wet, or windy it might be!

Date:

Astronomy

Feb. 11, 2013 Rise Set
Actual Time 7:31 AM EST 6:12 PM EST
Civil Twilight 7:04 AM EST 6:39 PM EST
Nautical Twilight 6:33 AM EST 7:10 PM EST
Astronomical Twilight 6:02 AM EST 7:40 PM EST
Moon 7:57 AM EST (2/11) 8:05 PM EST (2/11)
Length of Visible Light 11h 35m
Length of Day
10h 41m
Waxing Crescent, 3% of the Moon is Illuminated
Feb 11
Waxing Crescent
Feb 17
First Quarter
Feb 25
Full
Mar 4
Last Quarter
Mar 11
New

Hourly Weather History & Observations

Time (EST) Temp. Windchill Dew Point Humidity Pressure Visibility Wind Dir Wind Speed Gust Speed Precip Events Conditions
12:15 AM 53.6 °F - 46.4 °F 77% 29.86 in 10.0 mi SSW 13.8 mph 20.7 mph N/A   Overcast
12:35 AM 53.6 °F - 46.4 °F 77% 29.88 in 10.0 mi SSW 9.2 mph 16.1 mph N/A   Overcast
12:55 AM 53.6 °F - 48.2 °F 82% 29.88 in 10.0 mi SSW 12.7 mph 19.6 mph N/A   Overcast
1:15 AM 55.4 °F - 48.2 °F 77% 29.88 in 10.0 mi SSW 17.3 mph 23.0 mph N/A   Mostly Cloudy
1:35 AM 55.4 °F - 48.2 °F 77% 29.88 in 10.0 mi SSW 13.8 mph 20.7 mph N/A   Mostly Cloudy
1:55 AM 55.4 °F - 50.0 °F 82% 29.88 in 10.0 mi SSW 15.0 mph 21.9 mph N/A   Overcast
2:15 AM 55.4 °F - 50.0 °F 82% 29.87 in 10.0 mi SSW 11.5 mph 19.6 mph N/A   Overcast
2:35 AM 55.4 °F - 50.0 °F 82% 29.88 in 10.0 mi SSW 10.4 mph 19.6 mph N/A   Overcast
2:55 AM 55.4 °F - 50.0 °F 82% 29.88 in 10.0 mi SSW 12.7 mph - N/A   Overcast
3:15 AM 55.4 °F - 50.0 °F 82% 29.88 in 10.0 mi SW 11.5 mph 16.1 mph N/A   Overcast
3:35 AM 55.4 °F - 50.0 °F 82% 29.88 in 10.0 mi SW 9.2 mph - N/A   Overcast
4:15 AM 53.6 °F - 50.0 °F 88% 29.88 in 10.0 mi SSW 10.4 mph - N/A   Mostly Cloudy
4:35 AM 53.6 °F - 50.0 °F 88% 29.88 in 10.0 mi SW 11.5 mph 16.1 mph N/A   Overcast
4:55 AM 55.4 °F - 50.0 °F 82% 29.89 in 10.0 mi SW 15.0 mph 18.4 mph N/A   Mostly Cloudy
5:15 AM 55.4 °F - 50.0 °F 82% 29.90 in 10.0 mi WSW 13.8 mph 20.7 mph N/A   Mostly Cloudy
5:35 AM 55.4 °F - 50.0 °F 82% 29.90 in 10.0 mi WSW 15.0 mph - N/A   Overcast
5:55 AM 55.4 °F - 50.0 °F 82% 29.90 in 10.0 mi WSW 11.5 mph 21.9 mph N/A   Mostly Cloudy
6:15 AM 55.4 °F - 48.2 °F 77% 29.90 in 10.0 mi SW 11.5 mph - N/A   Clear
6:35 AM 53.6 °F - 48.2 °F 82% 29.90 in 10.0 mi SW 8.1 mph - N/A   Mostly Cloudy
6:55 AM 53.6 °F - 48.2 °F 82% 29.91 in 10.0 mi WSW 13.8 mph - N/A   Scattered Clouds
7:15 AM 53.6 °F - 46.4 °F 77% 29.92 in 10.0 mi SW 10.4 mph - N/A   Clear
7:35 AM 53.6 °F - 44.6 °F 72% 29.92 in 10.0 mi SW 16.1 mph 21.9 mph N/A   Clear
7:55 AM 51.8 °F - 41.0 °F 67% 29.93 in 10.0 mi WSW 11.5 mph 18.4 mph N/A   Clear
8:15 AM 51.8 °F - 41.0 °F 67% 29.94 in 10.0 mi WSW 15.0 mph 20.7 mph N/A   Clear
8:35 AM 51.8 °F - 41.0 °F 67% 29.95 in 10.0 mi WSW 12.7 mph 20.7 mph N/A   Clear
8:55 AM 51.8 °F - 39.2 °F 62% 29.96 in 10.0 mi WSW 15.0 mph 21.9 mph N/A   Clear
9:15 AM 51.8 °F - 37.4 °F 58% 29.97 in 10.0 mi WSW 13.8 mph 21.9 mph N/A   Clear
9:35 AM 51.8 °F - 35.6 °F 54% 29.96 in 10.0 mi WSW 16.1 mph 27.6 mph N/A   Clear
9:55 AM 53.6 °F - 37.4 °F 54% 29.96 in 10.0 mi WSW 9.2 mph 18.4 mph N/A   Clear
10:15 AM 51.8 °F - 32.0 °F 47% 29.97 in 10.0 mi WSW 24.2 mph 31.1 mph N/A   Clear
10:35 AM 53.6 °F - 33.8 °F 47% 29.98 in 10.0 mi WSW 18.4 mph 24.2 mph N/A   Clear
10:55 AM 51.8 °F - 32.0 °F 47% 29.99 in 10.0 mi WSW 18.4 mph 29.9 mph N/A   Clear
11:15 AM 51.8 °F - 32.0 °F 47% 30.00 in 10.0 mi WSW 17.3 mph 25.3 mph N/A   Clear
11:35 AM 53.6 °F - 32.0 °F 44% 30.01 in 10.0 mi WSW 17.3 mph 24.2 mph N/A   Clear
11:55 AM 51.8 °F - 30.2 °F 44% 30.01 in 10.0 mi WSW 18.4 mph 26.5 mph N/A   Clear
12:15 PM 51.8 °F - 28.4 °F 41% 30.00 in 10.0 mi WSW 17.3 mph 25.3 mph N/A   Clear
12:35 PM 51.8 °F - 28.4 °F 41% 29.99 in 10.0 mi WSW 17.3 mph 27.6 mph N/A   Clear
12:55 PM 51.8 °F - 28.4 °F 41% 29.98 in 10.0 mi WSW 19.6 mph 26.5 mph N/A   Clear
1:15 PM 51.8 °F - 26.6 °F 38% 29.99 in 10.0 mi WSW 18.4 mph 27.6 mph N/A   Clear
1:35 PM 51.8 °F - 24.8 °F 35% 29.99 in 10.0 mi WSW 20.7 mph 27.6 mph N/A   Clear
1:55 PM 51.8 °F - 26.6 °F 38% 29.99 in 10.0 mi WSW 18.4 mph 25.3 mph N/A   Clear
2:15 PM 51.8 °F - 24.8 °F 35% 29.99 in 10.0 mi WSW 18.4 mph 28.8 mph N/A   Clear
2:35 PM 51.8 °F - 24.8 °F 35% 29.99 in 10.0 mi WSW 19.6 mph 25.3 mph N/A   Clear
2:55 PM 51.8 °F - 24.8 °F 35% 30.00 in 10.0 mi WSW 15.0 mph 23.0 mph N/A   Clear
3:15 PM 51.8 °F - 24.8 °F 35% 30.00 in 10.0 mi WSW 13.8 mph 28.8 mph N/A   Clear
3:35 PM 51.8 °F - 24.8 °F 35% 30.00 in 10.0 mi WSW 19.6 mph 23.0 mph N/A   Clear
3:55 PM 51.8 °F - 24.8 °F 35% 30.00 in 10.0 mi West 16.1 mph 20.7 mph N/A   Clear
4:15 PM 50.0 °F - 23.0 °F 35% 30.00 in 10.0 mi WSW 15.0 mph 21.9 mph N/A   Clear
4:35 PM 50.0 °F - 24.8 °F 37% 30.00 in 10.0 mi WSW 19.6 mph 26.5 mph N/A   Clear
4:55 PM 50.0 °F - 23.0 °F 35% 30.00 in 10.0 mi WSW 17.3 mph 27.6 mph N/A   Clear
5:55 PM 48.2 °F - 24.8 °F 40% 30.01 in 10.0 mi WSW 16.1 mph - N/A   Clear
6:15 PM 46.4 °F 40.1 °F 26.6 °F 46% 30.01 in 10.0 mi WSW 15.0 mph 21.9 mph N/A   Clear
6:35 PM 44.6 °F 38.8 °F 26.6 °F 49% 30.02 in 10.0 mi WSW 11.5 mph 16.1 mph N/A   Clear
6:55 PM 44.6 °F 39.7 °F 26.6 °F 49% 30.03 in 10.0 mi WSW 9.2 mph - N/A   Clear
7:15 PM 44.6 °F 40.2 °F 26.6 °F 49% 30.03 in 10.0 mi SW 8.1 mph - N/A   Clear
7:35 PM 42.8 °F 37.5 °F 26.6 °F 53% 30.05 in 10.0 mi SW 9.2 mph - N/A   Clear
8:15 PM 42.8 °F 36.6 °F 28.4 °F 57% 30.07 in 10.0 mi SW 11.5 mph - N/A   Clear
8:35 PM 42.8 °F 37.5 °F 28.4 °F 57% 30.07 in 10.0 mi SW 9.2 mph - N/A   Clear
8:55 PM 41.0 °F 34.3 °F 28.4 °F 61% 30.08 in 10.0 mi SW 11.5 mph - N/A   Clear
9:15 PM 41.0 °F 36.4 °F 28.4 °F 61% 30.07 in 10.0 mi WSW 6.9 mph - N/A   Clear
9:35 PM 41.0 °F 35.2 °F 28.4 °F 61% 30.09 in 10.0 mi SW 9.2 mph - N/A   Clear
9:55 PM 41.0 °F 35.2 °F 28.4 °F 61% 30.09 in 10.0 mi WSW 9.2 mph - N/A   Clear
10:15 PM 39.2 °F 33.6 °F 26.6 °F 61% 30.09 in 10.0 mi SW 8.1 mph - N/A   Clear
10:35 PM 39.2 °F 34.2 °F 26.6 °F 61% 30.09 in 10.0 mi WSW 6.9 mph - N/A   Clear
10:55 PM 39.2 °F 35.0 °F 26.6 °F 61% 30.09 in 10.0 mi SW 5.8 mph - N/A   Clear
11:15 PM 39.2 °F 33.6 °F 26.6 °F 61% 30.10 in 10.0 mi SW 8.1 mph - N/A   Clear
11:35 PM 39.2 °F 33.0 °F 26.6 °F 61% 30.11 in 10.0 mi WSW 9.2 mph - N/A   Clear
11:55 PM 39.2 °F 33.0 °F 26.6 °F 61% 30.12 in 10.0 mi WSW 9.2 mph - N/A   Clear